www.pogodaiklimat.ru

Погода и климат >> Архив погоды >> Мальдивы >> Кадхдху


ПОГОДА на Кадхдху

  • Прогноз погоды на Кадхдху
  • Монитор погоды на Кадхдху

АРХИВ ПОГОДЫ на Кадхдху

Время (UTC), дата Ветер
(напр.,м/с)
 
Видим.   Явления Облачность Т
(С)
Тd
(С)
f
(%)
Тe
(С)
Тes
(С)
Комфортность P
(гПа)
Po
(гПа)
Тmin
(С)
Tmax
(С)
R
(мм)
R24
(мм)
S
(см)
21 18.08 СЗ 3 7000 м слаб. ливневой дождь 9/5 500 м
[Cb cap Ac As Ci sp]
+26.2 +23.9 87 +36 +36 очень
душно
1011.9 1011.7
00 19.08 З 4 10 км в посл. час ливневой дождь 9/3 500 м
[Cu med, cong Ac As]
+26.6 +24.4 88 +37 +37 очень
душно
1011.1 1010.9 19
03 19.08 З 1 12 км 9/3 540 м
[Cu med, cong Ac As]
+27.3 +24.0 82 +38 +39 очень
душно
1012.6 1012.4 +23.2
06 19.08 З 3 12 км 8/3 540 м
[Cu med, cong Ac trans Ci sp]
+30.5 +24.3 70 +43 +51 опасность
перегрева
1013.1 1012.9
09 19.08 З 4 12 км 9/4 500 м
[Cb cap Ac trans Ci sp]
+29.0 +25.3 80 +42 +46 опасность
перегрева
1011.9 1011.7
12 19.08 С 3 10 км слаб. дождь 9/4 500 м
[Cb cap Ac As]
+25.6 +24.3 93 +36 +36 очень
душно
1011.5 1011.3 +31.9 8
15 19.08 З 2 12 км {дождь} 9/3 540 м
[Cu med, cong Ac As]
+26.8 +23.9 84 +37 +37 очень
душно
1012.1 1011.9
18 19.08 нст 1 12 км {дождь} 9/3 540 м
[Cu med, cong Ac As]
+26.0 +24.3 90 +36 +36 очень
душно
1013.1 1012.9 0.0
21 19.08 штиль 0 12 км 9/3 540 м
[Cu med, cong Ac As]
+26.4 +24.8 91 +38 +38 очень
душно
1011.7 1011.5
00 20.08 штиль 0 12 км 9/3 540 м
[Cu med, cong Ac trans]
+25.2 +24.5 96 +35 +35 очень
душно
1011.3 1011.1 0.0
03 20.08 нст 1 12 км 9/1 540 м
[Cu med, cong Ac trans]
+28.5 +24.6 79 +40 +43 очень
душно
1012.4 1012.2 +23.8
06 20.08 ЮЗ 2 12 км 6/3 540 м
[Cu med, cong Ac trans Ci sp]
+30.5 +24.5 70 +43 +55 опасность
перегрева
1013.2 1013.0
09 20.08 ЮЗ 1 12 км 9/3 540 м
[Cu med, cong Ac trans Ci sp]
+30.9 +24.6 69 +44 +51 опасность
перегрева
1011.4 1011.2
12 20.08 Ю 3 13 км 8/3 540 м
[Cu med, cong Ci sp]
+30.5 +24.7 71 +43 +44 опасность
перегрева
1010.4 1010.2 +31.7
15 20.08 Ю 2 13 км 8/3 540 м
[Cu med, cong Ci sp]
+28.5 +24.3 78 +40 +40 очень
душно
1012.6 1012.4
18 20.08 Ю 2 13 км 9/3 540 м
[Cu med, cong Cs]
+28.2 +24.5 80 +40 +40 очень
душно
1013.3 1013.1
21 20.08 Ю 1 13 км {ливн. осадки} 9/3 540 м
[Cu med, cong Ac trans Ci sp]
+27.9 +24.3 81 +39 +39 очень
душно
1011.2 1011.0
00 21.08 Ю 2 13 км {ливн. осадки} 8/3 540 м
[Cu med, cong Ac trans Ci sp]
+27.9 +24.6 82 +39 +39 очень
душно
1011.1 1010.9 0.0
06 21.08 Ю 5 15 км 5/1 540 м
[Cu med, cong Ac trans Ci sp]
+31.2 +25.3 71 +45 +53 опасность
перегрева
1012.0 1011.8
09 21.08 ЮЗ 2 15 км 9/3 540 м
[Cu med, cong Ac trans Ci sp]
+31.7 +25.8 71 +47 +54 опасность
перегрева
1010.6 1010.4
12 21.08 ЮЗ 3 15 км 9/3 540 м
[Cu med, cong Ac trans Ci sp]
+30.2 +24.5 72 +43 +43 опасность
перегрева
1011.0 1010.8 +32.4
15 21.08 Ю 2 15 км 9/3 540 м
[Cu med, cong Ac trans Ci sp]
+28.8 +24.8 79 +41 +41 опасность
перегрева
1012.8 1012.6
18 21.08 Ю 2 15 км 9/3 540 м
[Cu med, cong Ac trans Ci sp]
+28.6 +24.7 79 +41 +41 опасность
перегрева
1013.0 1012.8
21 21.08 ЮЗ 1 14 км 9/3 540 м
[Cu med, cong Ac trans Ci sp]
+28.8 +23.7 74 +39 +39 очень
душно
1011.2 1011.0
00 22.08 ЮЗ 2 14 км 8/3 540 м
[Cu med, cong Ac trans Ci sp]
+28.2 +24.5 80 +40 +40 очень
душно
1011.1 1010.9
03 22.08 ЮЗ 1 15 км 9/1 540 м
[Cu med, cong Ac trans Ci sp]
+29.4 +25.0 77 +42 +45 опасность
перегрева
1012.5 1012.3 +27.6
06 22.08 З 2 15 км 9/1 540 м
[Cu med, cong Ac trans Cs]
+30.9 +24.3 68 +43 +54 опасность
перегрева
1012.5 1012.3
09 22.08 З 2 15 км 9/3 540 м
[Cu med, cong Ac trans Cs]
+31.8 +24.7 66 +45 +52 опасность
перегрева
1011.0 1010.8
12 22.08 З 1 15 км 9/3 540 м
[Cu med, cong Ac trans Cs]
+30.1 +23.9 69 +41 +42 опасность
перегрева
1011.1 1010.9 +32.9
18 22.08 ЮЗ 3 12 км {ливн. осадки} 9/3 540 м
[Cu med, cong Ac trans Cs]
+28.8 +24.0 75 +40 +40 очень
душно
1013.2 1013.0 0.3
21 22.08 ЮЗ 1 13 км 9/3 540 м
[Cu med, cong Ac trans Cs]
+28.4 +23.3 74 +38 +38 очень
душно
1011.7 1011.5
00 23.08 ЮЗ 2 13 км 9/3 540 м
[Cu med, cong Ac trans Cs]
+28.3 +24.1 78 +39 +39 очень
душно
1011.2 1011.0 0.3
03 23.08 ЮЗ 3 13 км 9/3 540 м
[Cu med, cong Ac trans Ci sp]
+29.5 +23.9 72 +41 +43 опасность
перегрева
1013.5 1013.3 +27.6
06 23.08 Ю 2 13 км 9/3 540 м
[Cu med, cong Ac trans Ci sp]
+30.5 +23.7 67 +42 +50 опасность
перегрева
1013.3 1013.1
09 23.08 Ю 2 13 км 9/3 540 м
[Cu med, cong Ac trans Ci sp]
+30.5 +23.6 67 +42 +48 опасность
перегрева
1011.6 1011.4
12 23.08 Ю 3 12 км 9/1 540 м
[Cu med, cong Ac lent Ci sp]
+29.6 +23.8 71 +41 +41 опасность
перегрева
1011.3 1011.1 +31.8
15 23.08 Ю 1 12 км 9/3 540 м
[Cu med, cong Ac trans Ci sp]
+28.4 +23.5 75 +39 +39 очень
душно
1013.0 1012.8
18 23.08 Ю 2 12 км 9/3 540 м
[Cu med, cong Ac trans Ci sp]
+28.1 +24.2 79 +39 +39 очень
душно
1013.3 1013.1
21 23.08 Ю 1 12 км 9/1 540 м
[Cu med, cong Ac trans Ci sp]
+27.7 +23.8 79 +38 +38 очень
душно
1011.9 1011.7
00 24.08 Ю 2 12 км 9/3 540 м
[Cu med, cong Ac trans Ci sp]
+27.8 +23.7 78 +38 +38 очень
душно
1011.8 1011.6
03 24.08 Ю 1 13 км 9/1 540 м
[Cu med, cong Ac trans Cs]
+28.6 +24.0 76 +40 +42 очень
душно
1013.1 1012.9 +27.2
06 24.08 Ю 3 13 км 9/1 540 м
[Cu med, cong Ac trans Cs]
+29.8 +23.7 70 +41 +50 опасность
перегрева
1013.3 1013.1
09 24.08 ЮЗ 2 13 км 9/1 540 м
[Cu med, cong Ac trans Cs]
+30.4 +23.6 67 +41 +50 опасность
перегрева
1011.0 1010.8
12 24.08 Ю 2 13 км 9/3 540 м
[Cu med, cong Ac trans Cs]
+29.4 +24.4 75 +42 +42 опасность
перегрева
1010.7 1010.5 +31.2
15 24.08 Ю 1 12 км 9/3 540 м
[Cu med, cong Ac trans Cs]
+28.2 +23.6 76 +38 +38 очень
душно
1013.3 1013.1
18 24.08 Ю 2 12 км 9/3 540 м
[Cu med, cong Ac trans Cs]
+27.2 +23.3 79 +37 +37 очень
душно
1013.3 1013.1
21 24.08 Ю 1 12 км 9/3 540 м
[Cu med, cong Ac trans Cs]
+27.5 +23.1 77 +37 +37 очень
душно
1011.2 1011.0
00 25.08 нст 1 12 км 9/3 540 м
[Cu med, cong Ac trans Cs]
+26.1 +23.6 86 +35 +35 очень
душно
1011.4 1011.2
03 25.08 Ю 2 10 км в посл. час ливневой дождь 9/3 500 м
[Cb cap Ac trans Cs]
+28.0 +24.7 82 +40 +42 очень
душно
1013.0 1012.8 +26.0
06 25.08 Ю 3 12 км {ливн. осадки} 9/3 540 м
[Cu med, cong Ac trans Cs]
+30.2 +24.2 70 +42 +49 опасность
перегрева
1012.3 1012.1 0.0
09 25.08 Ю 2 12 км 9/3 540 м
[Cu med, cong Ac trans Cs]
+29.6 +23.5 70 +40 +48 очень
душно
1010.2 1010.0
12 25.08 Ю 3 12 км 9/3 540 м
[Cu med, cong Ac trans Cs]
+29.3 +24.0 73 +41 +41 опасность
перегрева
1010.5 1010.3 +30.6 0.0
15 25.08 Ю 2 12 км 9/3 540 м
[Cu med, cong Ac lent Cs]
+28.6 +23.7 75 +39 +39 очень
душно
1012.4 1012.2
18 25.08 Ю 1 12 км 9/3 540 м
[Cu med, cong Ac trans Cs]
+28.2 +23.6 76 +38 +38 очень
душно
1013.3 1013.1

 

Местоположение метеостанции Кадхдху (Мальдивы): широта 1.88 долгота 73.50 высота над уровнем моря 2 м.

В архиве по умолчанию представлена погода на Кадхдху за последнюю неделю. Архивные данные за месяц целиком и за предыдущие месяцы, начиная с января 2011 года, Вы можете получить, выбрав интересующий диапазон дат из раскрывающегося списка и нажав кнопку "Ввод!".


*Определитесь, кто Вы:
робот инопланетянин человек

Внимание! Время в таблицах - всемирное. Для получения местного времени необходимо прибавить поправку, которая равна 5 ч.

Смотрите также архив погоды в соседних городах и на ближайших метеорологических станциях:

Погода на Каадедхдху (Мальдивы) (166 км)
Погода в Мале (Мальдивы) (258 км)
Погода в Гане (Мальдивы) (287 км)
Погода на Ханимааду (Мальдивы) (541 км)
Погода на Миникое (Лакшадвип, Индия) (715 км)
Погода в Каньякумари (Тамилнад, Индия) (820 км)
Погода в Тривандрам аэропорту (Керала, Индия) (827 км)
Погода в Тривандраме (Керала, Индия) (828 км)
Погода в Галле (Шри Ланка) (877 км)
Погода в Пуналере (Керала, Индия) (878 км)

Пояснения к столбцам:

Ветер - указаны скорость ветра в м/с - средняя за 10 мин, порывы в срок и между сроками (в фигурных скобках) и направление, откуда дует ветер: С - северный, СВ - северо-восточный, В - восточный, ЮВ - юго-восточный, Ю - южный, ЮЗ - юго-западный, З - западный, СЗ - северо-западный.
Видимость - горизонтальная дальность видимости в метрах или километрах. При видимости от 1 до 10 км при отсутствии осадков обычно наблюдается дымка, при ухудшении видимости до 1 км и менее - туман. В сухую погоду видимость может ухудшаться дымом, пылью или мглою.
Явления - указаны атмосферные явления, наблюдавшиеся в срок или в последний час перед сроком; фигурными скобками обозначены явления, наблюдавшиеся между сроками (за 1-3 часа до срока); квадратными скобками обозначены град или гололедные отложения с указанием их диаметра в мм.
Облачность - указаны через наклонную черту общая и нижняя облачность в баллах и высота нижней границы облаков в метрах; квадратными скобками обозначены формы облаков: Ci - перистые, Cs - перисто-слоистые, Cc - перисто-кучевые, Ac - высококучевые, As - высокослоистые, Sc - слоисто-кучевые, Ns - слоисто-дождевые, Cu - кучевые, Cb - кучево-дождевые. Подробнее классификацию облаков см. в Атласе облаков (PDF).
T - Температура воздуха - температура, измеренная на высоте 2 м над землей.
Td - Температура точки росы - температура, при понижении до которой содержащийся в воздухе водяной пар достигнет насыщения.
f - Относительная влажность воздуха - влажноcть воздуха, измеренная на высоте 2 м над землей.
Te - Эффективная температура - температура, которую ощущает одетый по сезону человек в тени. Характеристика душности погоды. При расчете учитывается влияние влажности воздуха и скорости ветра на теплоощущения человека.
Tes - Эффективная температура на солнце - температура, которую ощущает человек, с поправкой на солнечный нагрев. Характеристика знойности погоды. Зависит от высоты солнца над горизонтом, облачности и скорости ветра. Ночью, в пасмурную погоду, а также при ветре 12 м/с и более поправка равна нулю.
P - Атмосферное давление - приведенное к уровню моря атмосферное давление.
Po - Атмосферное давление - измеренное на уровне метеостанции атмосферное давление.
Tmin - Минимальная температура - минимум температуры воздуха на высоте 2 м над землей.
Tmax - Максимальная температура - максимум температуры воздуха на высоте 2 м над землей.
R - Количество осадков - Количество выпавших осадков за период времени, мм. При наведении курсора мыши на число - период времени, за который выпало указанное количество осадков.
R24 - Количество осадков - Количество выпавших осадков за 24 часа, мм.
S - Снежный покров - Высота снежного покрова, см. При наведении курсора мыши на число - состояние снежного покрова и степень покрытия местности в баллах.